Location: *
(32.8667°N, 13.1833°E)
Time: 17:38:26
(UTC+00:00)

DELTA 2 R/B (1) - Pass Details

Date: 18 July 2019
Orbit: 791 x 802 km, 39.6° (Epoch: 23 August)

Event Time Altitude Azimuth Distance (km) Brightness Sun altitude
Rises 18:56:19 0° 234° (SW) 3,291 7.1 -8.4°
Reaches altitude 10° 18:58:49 10° 232° (SW) 2,362 6.3 -8.8°
Maximum altitude 19:04:21 66° 151° (SSE) 864 3.6 -9.8°
Drops below altitude 10° 19:09:52 10° 70° (ENE) 2,362 5.7 -10.8°
Sets 19:12:22 0° 67° (ENE) 3,291 6.5 -11.2°
